Location: Chmeln�
(49.6483°N, 14.9871°E)
Time: 15:48:05
(UTC+00:00)

Ariane Rocket - Pass Details

Date: 18 September 2020
Orbit: 761 x 769 km, 98.7° (Epoch: 24 October)

Event Time Altitude Azimuth Distance (km) Brightness Sun altitude
Exits shadow 18:09:46 - 150° (SSE) 2,764 5.5 -11.0°
Reaches altitude 10° 18:10:57 10° 147° (SSE) 2,295 5.0 -11.2°
Maximum altitude 18:15:54 59° 70° (ENE) 888 3.1 -11.9°
Drops below altitude 10° 18:20:54 10° 352° (N) 2,317 5.8 -12.7°
Sets 18:23:15 0° 348° (NNW) 3,249 6.7 -13.1°
